Weather in Novorozhdestvenka

Russia / Omsk Oblast     55°05′42″N   71°27′49″E
temp.,
°C
wind,
m/s
gust,
m/s
humid.,
%
clouds,
%
prec.,
mm/h
press.,
hPa
HPBL,
m
28 june, tue
tue2800:00+11wnw598184 0.1 1006588
03:00+11w488214 0.0 1006467
06:00+9sw379369 0.0 1006213
09:00+14sw6870100 0.0 1005815
12:00+16sw5762100 0.0 10041059
15:00+14w2884100 0.3 1004464
18:00+15sse3882100 0.3 1002289
21:00+14wsw369097 0.3 1000163
29 june, wed
wed2900:00+13wsw379696 0.3 999255
03:00+10wnw4898100 0.2 998317
06:00+9wnw5109652 0.3 998390
09:00+10w798489 0.2 998791
12:00+11w897296 0.8 9981297
15:00+12w81166100 0.4 9981636
18:00+8w71083100 0.9 9991128
21:00+8w81292100 0.6 998756
30 june, thu
thu3000:00+7wnw71093100 0.9 9991027
03:00+6w61395100 0.2 999945
06:00+7wnw8139197 0.2 1000767
09:00+11wnw813727 0.0 10021096
12:00+15w71055100 0.1 10021827
15:00+17wnw810465 0.0 10022063
18:00+17wnw69515 0.0 10032326
21:00+13wnw377312 0.0 1004172
1 july, fri
fri100:00+13wsw3672100 0.1 1004157
03:00+12w367647 0.0 1004171
06:00+8wnw39870 0.0 1005226
09:00+13w711640 0.0 1005958
12:00+16w911515 0.0 10051520
15:00+16wnw8115549 0.0 10061772
18:00+15wnw711620 0.0 10061226
21:00+12nw48770 0.0 1007337
2 july, sat
sat200:00+8wnw36943 0.0 1007112
03:00+7wnw37953 0.0 1006120
06:00+7w34934 0.0 1006102
09:00+13wnw33735 0.0 1005491
12:00+17nnw336229 0.1 10041247
15:00+18n335624 0.4 10031376
18:00+18n3353100 0.5 10021603
21:00+14n34795 0.1 100272